Powrót do katalogu

STARLINK-11616

AktywnyŁącznośćVLEO
NORAD 63137·PAYLOAD·🇺🇸 United States

Wystrzelony Mar 3, 2025 z Cape Canaveral Space Force Station

Loading…

Następne Przeloty (najbliższe 24 godziny)

TLE

ŚwieżeSource: CelesTrak SupGP

Epoka: Sep 14, 2026, 20:54 UTC

1 63137C 25043F   26257.87131944  .00047554  00000+0  36932-3 0  2570
2 63137  43.0004 190.0605 0001513 255.6493 304.1541 15.70816703    15

Śledź STARLINK-11616 w czasie rzeczywistym z AllMySat

Download on the App Store